Content
SEND FEEDBACK

Daily
Averages
Monthly
Summary
Greece

IOANNINA, GREECE


Home > Europe > Greece
Elevation: 1588 feet     Latitude: 39 40N     Longitude: 020 51E

WEATHER
 
SELECT A DAY
Number of Records: 288,853;   Date Range: 7/1/96 - 10/23/14
 
SHARE

PRINT THIS DATA

[ ← Previous Day ]
WEATHER ALMANAC - JANUARY 24, 2013
[ Next Day → ]
[ °C ]   °F
Weather ElementAverageHighLow
Temperature52.8 °F56 °F (2:00 pm)46.4 °F (6:50 am)
Dewpoint48.1 °F51.8 °F (11:50 am)44.6 °F (12:50 pm)
Humidity84.1 %100 % (5:20 am)66 % (2:00 pm)
Barometer29.61 in29.83 in (12:50 am)29.53 in (4:50 pm)
Wind Speed12.5 mph23 mph (8:50 am)
Wind Gust40.3 mph (9:20 am)
Weather ElementAverage
Visibility5.3 mi
Wind DirectionS (174.8 °)

Weather ElementTotal
Precipitation---
Heating Degree Days13.8 (Base 65)
Growing Degree Days1.2 (Base 50)
Averaged from 51 records on January 24, 2013
WEATHER CONDITIONS BREAKOUT
WIND DIRECTION BREAKOUT
WEATHER BY HOUR - JANUARY 24, 2013
[ °C ]   °F
Local TimeTemperatureDewpointHumidityBarometerVisibilityWind DirectionWind SpeedGust SpeedPrecipitationEventsConditions
12:50 AM55.4 °F48.2 °F77 %29.83 in6.2 miESE (120°)13.8 mphRainLight Rain
1:20 AM55.4 °F48.2 °F77 %29.83 in6.2 miESE (110°)16.1 mphRainLight Rain
1:50 AM55.4 °F48.2 °F77 %29.80 in6.2 miESE (110°)16.1 mphRainLight Rain
2:00 AM55.0 °F48.0 °F71 %29.81 in6.0 miESE (110°)16.1 mphRainLight Rain
2:20 AM55.4 °F50.0 °F82 %29.77 in5.0 miESE (110°)18.4 mphRainLight Rain
2:50 AM51.8 °F48.2 °F88 %29.77 in5.0 miSE (130°)17.3 mphRainLight Rain
3:20 AM51.8 °F48.2 °F88 %29.74 in6.2 miSE (140°)13.8 mphRain-ThunderstormLight Thunderstorms and Rain
3:50 AM51.8 °F48.2 °F88 %29.71 in5.0 miSE (130°)15.0 mphRain-ThunderstormLight Thunderstorms and Rain
4:20 AM53.6 °F50.0 °F88 %29.68 in4.3 miSE (140°)15.0 mphRain-ThunderstormLight Thunderstorms and Rain
4:50 AM53.6 °F48.2 °F82 %29.68 in3.7 miSE (130°)17.3 mphRain-ThunderstormLight Thunderstorms and Rain
5:20 AM50.0 °F50.0 °F100 %29.65 in0.3 miSW (230°)21.9 mphThunderstormThunderstorms and Ice Pellets
5:50 AM48.2 °F48.2 °F100 %29.68 in3.1 miSouth (180°)3.5 mphRain-ThunderstormLight Thunderstorms and Rain
6:20 AM48.2 °F46.4 °F93 %29.65 in3.7 miVariable3.5 mphRain-ThunderstormLight Thunderstorms and Rain
6:50 AM46.4 °F46.4 °F100 %29.62 in3.7 miNNE (30°)3.5 mphRain-ThunderstormLight Thunderstorms and Rain
7:20 AM46.4 °F46.4 °F100 %29.62 in3.7 miNNE (30°)3.5 mphMostly Cloudy
7:50 AM50.0 °F50.0 °F100 %29.62 in4.3 miCalmRainLight Rain
8:00 AM50.0 °F50.0 °F98 %29.62 in4.0 miCalmRainLight Rain
8:20 AM50.0 °F50.0 °F100 %29.62 in4.3 miSSW (200°)9.2 mphMostly Cloudy
8:50 AM48.2 °F48.2 °F100 %29.62 in2.5 miSSW (210°)23.0 mph34.5 mphRain-ThunderstormThunderstorms and Rain
9:20 AM48.2 °F48.2 °F100 %29.62 in1.9 miSW (230°)23.0 mph40.3 mphRainRain
9:50 AM48.2 °F46.4 °F93 %29.59 in2.5 miSSW (210°)21.9 mph36.8 mphRainRain
10:20 AM48.2 °F48.2 °F100 %29.59 in4.3 miSSW (200°)19.6 mph31.1 mphMostly Cloudy
10:50 AM51.8 °F48.2 °F88 %29.62 in6.2 miSSW (200°)19.6 mph31.1 mphMostly Cloudy
11:20 AM55.4 °F50.0 °F82 %29.62 in6.2 miSouth (180°)17.3 mph28.8 mphMostly Cloudy
11:50 AM55.4 °F51.8 °F88 %29.62 in6.2 miSouth (190°)11.5 mph23.0 mphScattered Clouds
12:20 PM55.4 °F51.8 °F88 %29.62 in6.2 miSouth (190°)11.5 mph25.3 mphScattered Clouds
12:50 PM55.4 °F44.6 °F67 %29.59 in6.2 miSouth (190°)16.1 mph27.6 mphMostly Cloudy
1:20 PM55.4 °F44.6 °F67 %29.59 in6.2 miSSW (200°)17.3 mph28.8 mphMostly Cloudy
1:50 PM55.4 °F48.2 °F77 %29.59 in6.2 miSSW (210°)18.4 mph29.9 mphRainLight Rain
2:00 PM56.0 °F48.0 °F66 %29.59 in6.0 miSSW (210°)18.4 mphRainLight Rain
2:20 PM55.4 °F48.2 °F77 %29.59 in6.2 miSSW (200°)12.7 mph24.2 mphMostly Cloudy
2:50 PM53.6 °F50.0 °F88 %29.56 in5.0 miSSW (210°)6.9 mph18.4 mphRain-ThunderstormThunderstorms and Rain
3:20 PM53.6 °F50.0 °F88 %29.56 in5.0 miSSW (210°)15.0 mphThunderstormThunderstorm
3:50 PM53.6 °F46.4 °F77 %29.56 in6.2 miSouth (180°)12.7 mphRain-ThunderstormLight Thunderstorms and Rain
4:20 PM53.6 °F46.4 °F77 %29.56 in6.2 miSSW (210°)12.7 mphThunderstormThunderstorm
4:50 PM55.4 °F50.0 °F82 %29.53 in6.2 miSouth (190°)6.9 mphMostly Cloudy
5:20 PM55.4 °F50.0 °F82 %29.53 in6.2 miSouth (180°)8.1 mphMostly Cloudy
5:50 PM53.6 °F48.2 °F82 %29.53 in6.2 miSSW (200°)10.4 mphMostly Cloudy
6:20 PM53.6 °F48.2 °F82 %29.53 in6.2 miSW (230°)6.9 mphMostly Cloudy
6:50 PM53.6 °F48.2 °F82 %29.53 in6.2 miSSW (200°)6.9 mphMostly Cloudy
7:20 PM53.6 °F48.2 °F82 %29.53 in6.2 miSSW (210°)6.9 mphMostly Cloudy
7:50 PM53.6 °F46.4 °F77 %29.53 in6.2 miSSW (200°)6.9 mphMostly Cloudy
8:00 PM54.0 °F47.0 °F69 %29.54 in6.0 miSSW (200°)6.9 mphPartly Cloudy
8:20 PM53.6 °F46.4 °F77 %29.53 in6.2 miSSW (210°)9.2 mphMostly Cloudy
8:50 PM53.6 °F46.4 °F77 %29.53 in6.2 miSSW (210°)11.5 mphMostly Cloudy
9:20 PM53.6 °F46.4 °F77 %29.53 in6.2 miSW (220°)11.5 mphMostly Cloudy
9:50 PM53.6 °F46.4 °F77 %29.53 in6.2 miSSW (210°)9.2 mphMostly Cloudy
10:20 PM53.6 °F46.4 °F77 %29.53 in6.2 miSW (220°)13.8 mphMostly Cloudy
10:50 PM53.6 °F46.4 °F77 %29.53 in6.2 miWSW (240°)13.8 mph25.3 mphMostly Cloudy
11:20 PM53.6 °F46.4 °F77 %29.53 in6.2 miWSW (250°)15.0 mph32.2 mphMostly Cloudy
11:50 PM53.6 °F48.2 °F82 %29.53 in6.2 miWSW (240°)11.5 mphMostly Cloudy
Hourly data recorded from LGIO, located miles away from Ioannina, Greece







STORIES FROM OUR PARTNERS